Flag for Germany Weather past 2 weeks in Zerbst/Anhalt, Saxony-Anhalt, Germany

Now
47 °F

Overcast.


Feels Like: 46 °F
Forecast: 43 / 54 °F
Wind: 3 mph from Southwest

Location: Magdeburg

Current Time: Dec 18, 2014 at 10:09:34 AM

Latest Report: Dec 18, 2014 at 9:00 AM


Visibility: 16 mi

Pressure: 29.81 "Hg

Humidity: 89%

Dew point: 44 °F

Location of Zerbst/AnhaltLocation

Historic Weather in Zerbst/Anhalt — Graph

°F

Zerbst/Anhalt temperature yesterday

Maximum temperature yesterday: 45 °F (at 11:00 PM)
Minimum temperature yesterday: 33 °F (at 6:00 AM)
Average temperature yesterday: 37 °F

Past Weeks' High & Low Weather Summary

 TemperatureHumidityPressure
High50 °F (Dec 12, 9:00 PM)99% (Dec 7, 8:00 AM)30.38 "Hg (Dec 7, 8:00 AM)
Low28 °F (Dec 3, 9:00 AM)67% (Dec 12, 1:00 PM)29.38 "Hg (Dec 12, 5:00 PM)
Average38 °F86%29.97 "Hg
* Reported Dec 3 9:00 AM — Dec 18 9:00 AM, Zerbst/Anhalt, Weather by CustomWeather, © 2014

Note: Actual official high and low records may vary slightly from our data, if they occured in-between our weather recording intervals... More about our weather records

Advertising

Zerbst/Anhalt weather history for previous 24 hours

 ConditionsComfort  
Time TempWeatherWind HumidityBarometerVisibility
9:00 AM
Dec 18
47 °FOvercast.3 mph89%29.81 "Hg16 mi
8:00 AM47 °FOvercast.5 mph87%29.81 "Hg16 mi
7:00 AM47 °FOvercast.3 mph85%29.80 "Hg12 mi
6:00 AM47 °FOvercast.2 mph87%29.80 "Hg10 mi
5:00 AM48 °FOvercast.3 mph85%29.79 "Hg9 mi
3:00 AM47 °FOvercast.3 mph88%29.78 "Hg14 mi
2:00 AM47 °FOvercast.3 mph89%29.76 "Hg12 mi
1:00 AM46 °FOvercast.3 mph91%29.74 "Hg11 mi
12:00 AM46 °FOvercast.5 mph91%29.72 "Hg12 mi
11:00 PM
Dec 17
45 °FLow clouds.5 mph94%29.70 "Hg6 mi
9:00 PM41 °FLow clouds.3 mph94%29.66 "Hg14 mi
8:00 PM39 °FLow clouds.3 mph96%29.63 "Hg12 mi
7:00 PM38 °FLight rain. Low clouds.3 mph97%29.62 "Hg2 mi
6:00 PM38 °FLight rain. Overcast.3 mph96%29.62 "Hg2 mi
5:00 PM38 °FLight rain. Overcast.5 mph92%29.62 "Hg3 mi
4:00 PM38 °FOvercast.5 mph89%29.62 "Hg16 mi
3:00 PM38 °FLight rain. Overcast.6 mph90%29.63 "Hg7 mi
2:00 PM37 °FLight rain. Overcast.5 mph89%29.66 "Hg5 mi
1:00 PM37 °FLight rain. Overcast.5 mph87%29.70 "Hg9 mi
12:00 PM37 °FOvercast.5 mph84%29.74 "Hg7 mi
11:00 AM36 °FOvercast.3 mph86%29.77 "Hg7 mi
Weather by CustomWeather, © 2014

See weather overviewHow to use our weather pages